Regional Weather Roundup
Issued by NWS Bismarck, ND

Home | Current Version | Previous Version | Text Only | Print | Product List | Glossary On
Versions: 1 2 3 4 5 6 7 8 9 10 11 12 13 14 15 16 17 18 19 20 21 22 23 24 25 26 27 28 29 30 31 32 33 34 35 36 37 38 39 40 41 42 43 44 45 46 47 48 49 50
000
ASUS43 KBIS 281559
RWRBIS

NWR BROADCAST TEXT
NATIONAL WEATHER SERVICE BISMARCK ND
1000 AM CST SUN DEC 28 2014

NOTE: "FAIR" INDICATES FEW OR NO CLOUDS BELOW 12,000 FEET WITH NO
SIGNIFICANT WEATHER AND/OR OBSTRUCTIONS TO VISIBILITY.


CITY           SKY/WX    TMP DP  RH WIND       PRES   REMARKS
WILLISTON      CLOUDY    11   5  77 E9        30.13R WCI  -2
MINOT          CLOUDY    -5  -9  83 N6        30.21R FOG     WCI -18
MINOT AFB      NOT AVBL
BISMARCK       CLOUDY    10   6  84 E13       30.17R WCI  -5
DICKINSON      NOT AVBL
GARRISON         N/A      5   1  83 E8        30.15R WCI  -8
HETTINGER ARPT CLOUDY    14  11  87 E8        30.00R WCI   3
JAMESTOWN      NOT AVBL
$$

CITY           SKY/WX    TMP DP  RH WIND       PRES   REMARKS
GRAND FORKS    SUNNY     -8 -13  78 N7        30.33R WCI -23
GRAND FORKS AF NOT AVBL
DEVILS LAKE    CLOUDY    -4  -9  77 NE7       30.24R WCI -18
FARGO          SUNNY      0  -8  69 N14       30.29R WCI -19
$$

CITY           SKY/WX    TMP DP  RH WIND       PRES   REMARKS
ABERDEEN       CLOUDY    14  10  84 NE14      30.18R WCI  -1
MOBRIDGE       PTSUNNY   16  12  84 E10       30.07R WCI   4
BUFFALO          N/A     19  14  81 CALM      29.89R
RAPID CITY     PTSUNNY   18   8  65 NW6       29.94S WCI  10
GLASGOW        CLOUDY    18  12  77 NE16      30.04R WCI   3
SIDNEY         CLOUDY    18  12  79 N12       30.09R WCI   5
WOLF POINT     CLOUDY    16  11  80 E16       30.08R WCI   1
GLENDIVE       CLOUDY    19  18  93 NE14      29.99R WCI   6
MILES CITY     LGT SNOW  23  21  92 E3        29.94R FOG
BAKER          CLOUDY    20  14  77 E6        29.96R WCI  12
$$

CITY           SKY/WX    TMP DP  RH WIND       PRES   REMARKS
BILLINGS       CLOUDY    24  14  65 SW13      29.87R WCI  12
GREAT FALLS    SNOW      19  17  92 N22       29.94R VSB 1/2 WCI   2
$$



USA.gov is the U.S. government's official web portal to all federal, state and local government web resources and services.